Location: Vallejo Observatory
(38.1221°N, 122.2109°W)
Time: 06:57:30
(UTC-07:00)

Daily predictions for brighter satellites

Satellite Brightness Start Highest point End
(mag) Time Altitude Azimuth Time Altitude Azimuth Time Altitude Azimuth
Resurs 1-3 4.3 20:11:22 10° SE 20:15:20 34° ENE 20:19:19 10° N
Cosmos 1655 Rocket 4.0 20:09:46 10° S 20:16:01 75° E 20:22:23 10° N
Okean 1 3.6 20:15:40 10° N 20:19:40 74° W 20:23:38 10° S
Meteor 1-19 Rocket 4.4 20:15:09 10° N 20:20:55 57° ENE 20:26:33 10° SSE
Meteor 2-11 Rocket 4.4 20:15:32 10° N 20:21:37 77° E 20:27:40 10° SSE
Cosmos 614 Rocket 3.9 20:16:47 10° NNW 20:21:56 78° ENE 20:27:05 10° SSE
USA 186 2.8 20:19:04 10° SE 20:22:03 30° ENE 20:25:02 10° NNE
Lacrosse 5 rocket 3.1 20:21:44 10° WNW 20:24:50 26° SW 20:28:04 10° S
Cosmos 44 4.4 20:21:09 10° NW 20:25:21 41° WSW 20:29:42 10° S
Cosmos 1536 3.5 20:21:44 10° SSE 20:25:27 35° E 20:29:10 10° NNE
Cosmos 1140 Rocket 3.6 20:20:25 10° NNW 20:25:41 83° WSW 20:30:56 10° SSE
Cosmos 1300 Rocket 4.0 20:21:50 10° SSE 20:25:49 38° E 20:29:48 10° NNE
Tiangong 1 0.8 20:23:37 10° WNW 20:26:25 72° NNE 20:28:58 11° ESE
BREEZE M DEB (TANK) 4.3 20:14:24 10° SSW 20:27:30 39° SSE 20:31:29 10° ENE
CZ-2D R/B 3.3 20:24:18 10° SSE 20:28:06 59° ENE 20:31:54 10° N
NOSS 2-3 (C) 3.9 20:24:02 10° SSW 20:28:38 87° WNW 20:33:58 10° NNE
Okean 1 Rocket 4.0 20:25:26 10° SSE 20:29:06 27° E 20:32:49 10° NNE
Cosmos 1633 4.1 20:26:12 10° SSW 20:29:37 41° W 20:33:07 10° N
Cosmos 1939 Rocket 4.1 20:27:44 10° ESE 20:30:51 23° ENE 20:33:57 10° NNE
Cosmos 1607 4.4 20:26:05 10° NNW 20:32:23 51° NE 20:38:34 10° SE
H-2A R/B 3.5 20:30:19 10° S 20:34:01 54° W 20:37:43 10° NNW
Spot 2 Rocket 3.6 20:31:32 10° SSE 20:36:32 59° ENE 20:41:32 10° N
Meteor 2-4 Rocket 3.9 20:34:00 10° N 20:39:32 57° ENE 20:45:11 10° SSE
YAOGAN 6 3.9 20:44:35 16° ESE 20:46:12 22° ENE 20:48:56 10° NNE
Abrixas 2.6 20:46:39 10° SSW 20:49:05 37° SE 20:50:21 21° E
ATLAS 3B R/B 3.2 20:46:25 10° NNW 20:52:43 40° NE 20:57:14 17° ESE
Resurs 01 Rocket 1.9 20:51:59 10° S 20:56:25 73° WSW 21:00:52 10° NNW
Cosmos 1553 Rocket 4.5 20:56:49 10° NNW 21:02:50 62° W 21:08:47 10° S
Cosmos 2266 Rocket 3.8 20:56:51 10° S 21:02:52 79° E 21:08:55 10° N
S3M 4.4 20:56:48 10° NNW 21:03:03 69° W 21:09:21 10° S
USA 267 3.5 20:58:14 12° SE 21:04:16 69° SW 21:10:49 10° NW
Envisat 3.0 21:00:53 10° SSE 21:05:57 89° E 21:11:03 10° NNW
Cosmos 1536 Rocket 4.3 21:02:22 10° NNW 21:06:36 54° W 21:10:50 10° S
Cosmos 1741 Rocket 4.5 21:05:27 10° NNW 21:10:37 61° WSW 21:15:48 10° S
Cosmos 2263 Rocket 2.4 21:04:57 10° NNW 21:10:39 75° WSW 21:15:50 12° SSE
Lacrosse 5 3.0 21:07:52 10° WSW 21:12:43 45° NW 21:17:36 10° NNE
Cosmos 2322 Rocket 3.9 21:11:22 10° SW 21:16:33 35° WNW 21:21:45 10° N
Cosmos 1844 Rocket 3.9 21:11:47 10° N 21:16:33 27° ENE 21:18:29 22° E
Cosmos 1515 4.2 21:13:55 10° N 21:17:29 37° E 21:18:01 35° E
Cosmos 2278 Rocket 4.3 21:16:23 10° NNE 21:18:15 12° NE 21:20:01 10° ENE
Helios 1B rocket 2.6 21:15:02 10° NNE 21:19:01 48° E 21:20:52 27° SSE
Nadezhda 2 Rocket 4.4 21:14:17 10° S 21:20:20 64° E 21:26:30 10° NNE
Cosmos 2315 Rocket 4.0 21:14:10 10° N 21:20:23 63° E 21:24:52 20° SSE
GPS 2-05 Rocket1 4.4 21:19:26 10° WSW 21:22:07 22° SSW 21:22:33 21° S
Atlas Centaur 2 3.9 21:16:17 10° W 21:23:37 34° SSW 21:27:38 21° SSE
SJ-11-01 4.2 21:20:40 19° SSE 21:24:02 89° WSW 21:28:43 10° NNW
Cosmos 1302 Rocket 4.1 21:21:56 10° S 21:27:04 54° ESE 21:32:12 10° NNE
H-2A R/B 3.5 21:27:33 19° ENE 21:27:51 19° ENE 21:31:18 10° NNE
Cosmos 2237 4.1 21:22:48 10° SSW 21:28:27 73° ESE 21:34:08 10° NNE
Cosmos 1500 3.3 21:29:26 49° ESE 21:29:48 51° E 21:33:35 10° NNE
SL-16 R/B 4.4 21:25:40 10° WSW 21:30:26 27° WNW 21:35:15 10° N
Cosmos 2219 Rocket 3.0 21:31:38 30° E 21:31:38 30° E 21:36:03 10° NE
SAR-Lupe-4 4.5 21:31:47 33° ENE 21:31:47 33° ENE 21:34:41 10° N
Abrixas rocket 4.1 21:29:24 10° NW 21:32:02 22° NNE 21:32:41 20° NE
Cosmos 1544 Rocket 4.3 21:34:24 34° ENE 21:34:24 34° ENE 21:38:00 10° NNE
Cosmos 405 3.7 21:35:04 39° NE 21:35:04 39° NE 21:37:44 10° NNE
ATLAS 2AS CENTAUR R/B 3.8 21:27:36 10° SW 21:35:07 54° NW 21:43:04 10° NNE
Cosmos 1486 Rocket 4.4 21:30:15 10° N 21:35:15 44° ENE 21:36:24 38° E
Delta 2 Rocket 3.3 21:31:58 10° W 21:35:54 63° S 21:36:35 54° SE
Okean 2 3.3 21:36:27 10° N 21:40:33 87° W 21:41:40 48° S
SeaSat 1 2.9 21:36:42 10° NNE 21:41:35 61° WNW 21:46:25 10° SW
Terra 4.1 21:43:39 11° NE 21:43:39 11° NE 21:44:16 10° NE
FALCON 9 R/B 4.2 21:38:07 10° S 21:48:21 22° E 21:57:06 10° ENE
Cosmos 2322 4.1 21:38:05 10° SSW 21:43:41 64° WNW 21:49:20 10° NNE
Cosmos 1975 3.1 21:45:06 49° ENE 21:45:06 49° ENE 21:48:24 10° NNE
CZ-4B DEB 3.9 21:46:22 33° N 21:46:22 33° N 21:48:07 10° N
NOSS 3-4 (A) 3.7 21:40:08 10° S 21:46:01 44° ESE 21:52:00 10° NE
Cosmos 1455 Rocket 3.8 21:46:55 37° ENE 21:46:55 37° ENE 21:50:14 10° NNE
NOSS 3-4 (C) 3.7 21:40:16 10° S 21:46:07 43° ESE 21:52:05 10° NE
Cosmos 2360 Rocket 3.2 21:42:11 10° SW 21:47:37 48° WNW 21:53:04 10° N
COSMOS 2428 2.6 21:51:07 10° SSW 21:56:51 88° ESE 22:02:38 10° NNE
Tiangong 1 3.9 21:59:40 10° WSW 21:59:57 11° WSW 21:59:57 11° WSW
Cosmos 1844 4.0 21:56:38 10° N 22:02:08 47° ENE 22:02:38 46° E
Cosmos 1025 Rocket 4.2 21:58:46 10° NNW 22:02:46 39° W 22:04:26 27° SW
MetOp-A 4.0 22:05:42 63° SSE 22:06:38 85° ENE 22:12:00 10° NNW
NOAA 11 4.3 22:06:33 47° S 22:08:11 75° WSW 22:13:42 10° NNW
Cosmos 2333 Rocket 2.7 22:11:01 43° ENE 22:11:01 43° ENE 22:15:09 10° NNE
Meteor 1-12 Rocket 4.1 22:08:02 48° S 22:09:43 88° E 22:15:24 10° N
Cosmos 724 4.4 22:07:00 10° NNW 22:12:45 54° NE 22:13:08 53° ENE
Cosmos 1354 Rocket 4.4 22:09:40 10° N 22:14:33 51° NE 22:14:33 51° NE
Cosmos 2333 4.4 22:09:33 10° SSW 22:15:11 71° WNW 22:20:49 10° NNE
Helios 1A 4.5 22:14:26 28° SW 22:15:33 32° W 22:19:24 10° NNW
Cosmos 2237 Rocket 3.7 22:23:58 23° NE 22:23:58 23° NE 22:26:14 10° NE
SL-8 R/B 4.1 22:21:09 10° WNW 22:25:10 59° W 22:25:10 59° W
Cosmos 1238 Rocket 4.2 22:20:03 10° NNW 22:26:36 64° W 22:28:20 46° SSW
Nadezhda 1 Rocket 3.9 22:20:50 10° N 22:27:10 70° E 22:27:23 69° E
ERS-1 Rocket 3.5 22:26:59 49° SW 22:27:33 52° W 22:32:27 10° NNW
SPOT 1/Viking Rocket 3.8 22:30:06 60° NNE 22:30:06 60° NNE 22:34:35 10° N
Cosmos 1818 4.5 22:24:26 10° SW 22:29:39 47° NW 22:34:54 10° NNE
SL-08 RB Rocket 4.3 22:31:56 54° NNW 22:31:56 54° NNW 22:35:29 10° NNW
NOSS 3-2 (A) 3.9 22:23:20 10° NNW 22:30:59 81° ENE 22:32:34 62° SE
USA 238 DEB 4.2 22:27:30 10° NW 22:34:22 54° WSW 22:35:59 45° SSW
USA 238 4.2 22:27:35 10° NW 22:34:28 54° WSW 22:36:03 46° SSW
Cosmos 1503 Rocket 4.2 22:29:19 10° NNW 22:34:02 67° N 22:34:02 67° N
ARGOS 3.3 22:35:34 64° WSW 22:35:40 64° WSW 22:41:01 10° NNW
ATLAS 3B R/B 3.5 22:37:18 10° NW 22:43:16 37° WSW 22:44:30 34° SW
SPOT 5 3.8 22:50:21 45° NW 22:50:21 45° NW 22:53:50 10° NNW
BREEZE-M (TANK) 3.9 22:40:06 10° WNW 22:49:24 50° N 22:49:24 50° N
Cosmos 1844 Rocket 3.6 22:55:15 10° NW 23:00:09 41° W 23:00:09 41° W
COSMOS 2455 4.3 22:56:23 10° N 23:00:40 26° NE 23:00:40 26° NE
Cosmos 2278 Rocket 2.8 22:57:37 10° NNW 23:01:51 51° N 23:01:51 51° N
NOSS 0 Rocket 4.2 23:05:59 65° NW 23:05:59 65° NW 23:11:51 10° NNE
H-2A R/B 3.2 23:08:11 38° WNW 23:08:11 38° WNW 23:11:43 10° NNW
NOSS 3-2 (C) 4.0 23:03:52 10° NW 23:11:32 77° WSW 23:11:38 76° SW
Cosmos 2219 Rocket 3.6 23:13:13 28° W 23:14:59 35° WNW 23:20:08 10° N
Terra 3.7 23:22:33 28° NNW 23:22:33 28° NNW 23:24:49 10° NNW
CENTAUR R/B 3.3 23:23:20 10° NNW 23:30:54 63° NE 23:30:54 63° NE
SL-16 R/B 4.2 23:35:21 20° NNE 23:35:21 20° NNE 23:36:58 10° NNE
Cosmos 2333 Rocket 4.3 23:52:56 20° WNW 23:54:14 21° NW 23:58:31 10° N
